• In Portugal
  • List of Countries
  • For 7 days
  • Water Temperature
  • Satellite Maps
  • Weather Map
  • Weather Widgets
  • user-avatar
    Login

    Hourly Weather Rychowo

    Today, 23 October, Tuesday

    Time Temperature Precipitation Wind Pressure Humidity
    00:00 +5°C° 0 mm 6 mps 762 mmHg 80%
    01:00 +5°C° 0 mm 7 mps 761 mmHg 80%
    02:00 +5°C° 0.3 mm 8 mps 760 mmHg 80%
    03:00 +5°C° 0.3 mm 8 mps 758 mmHg 79%
    04:00 +5°C° 0.3 mm 9 mps 757 mmHg 79%
    05:00 +5°C° 1.3 mm 10 mps 756 mmHg 81%
    06:00 +4°C° 1.3 mm 11 mps 754 mmHg 82%
    07:00 +4°C° 1.3 mm 12 mps 753 mmHg 84%
    08:00 +5°C° 1.9 mm 12 mps 751 mmHg 85%
    09:00 +7°C° 1.9 mm 12 mps 750 mmHg 86%
    10:00 +8°C° 1.9 mm 12 mps 749 mmHg 87%
    11:00 +8°C° 1.9 mm 12 mps 748 mmHg 86%
    12:00 +9°C° 1.9 mm 12 mps 748 mmHg 84%
    13:00 +9°C° 1.9 mm 12 mps 747 mmHg 83%
    14:00 +10°C° 0.7 mm 12 mps 746 mmHg 80%
    15:00 +10°C° 0.7 mm 12 mps 746 mmHg 78%
    16:00 +10°C° 0.7 mm 12 mps 746 mmHg 75%
    17:00 +9°C° 0.4 mm 12 mps 745 mmHg 75%
    18:00 +9°C° 0.4 mm 12 mps 745 mmHg 75%
    19:00 +9°C° 0.4 mm 11 mps 745 mmHg 75%
    20:00 +9°C° 0.3 mm 11 mps 745 mmHg 74%
    21:00 +9°C° 0.3 mm 11 mps 744 mmHg 73%
    22:00 +8°C° 0.3 mm 11 mps 744 mmHg 72%
    23:00 +8°C° 0.3 mm 11 mps 744 mmHg 70%

    Tomorrow, 24 October, Wednesday

    Time Temperature Precipitation Wind Pressure Humidity
    00:00 +7°C° 0.3 mm 12 mps 744 mmHg 68%
    01:00 +7°C° 0.3 mm 12 mps 744 mmHg 66%
    02:00 +5°C° 0.2 mm 12 mps 745 mmHg 63%
    03:00 +6°C° 0.2 mm 11 mps 745 mmHg 60%
    04:00 +5°C° 0.2 mm 10 mps 746 mmHg 57%
    05:00 +5°C° 0.1 mm 10 mps 747 mmHg 56%
    06:00 +5°C° 0.1 mm 10 mps 747 mmHg 55%
    07:00 +5°C° 0.1 mm 10 mps 748 mmHg 55%
    08:00 +5°C° 0 mm 10 mps 749 mmHg 52%
    09:00 +6°C° 0 mm 11 mps 750 mmHg 49%
    10:00 +6°C° 0 mm 11 mps 750 mmHg 47%
    11:00 +7°C° 0 mm 11 mps 751 mmHg 46%
    12:00 +7°C° 0 mm 11 mps 752 mmHg 45%
    13:00 +7°C° 0 mm 11 mps 752 mmHg 44%
    14:00 +7°C° 0 mm 10 mps 753 mmHg 46%
    15:00 +7°C° 0 mm 9 mps 753 mmHg 49%
    16:00 +6°C° 0 mm 8 mps 754 mmHg 51%
    17:00 +6°C° 0 mm 8 mps 754 mmHg 53%
    18:00 +6°C° 0 mm 7 mps 754 mmHg 56%
    19:00 +5°C° 0 mm 7 mps 755 mmHg 59%
    20:00 +5°C° 0 mm 6 mps 755 mmHg 62%
    21:00 +5°C° 0 mm 6 mps 755 mmHg 65%
    22:00 +5°C° 0 mm 5 mps 755 mmHg 68%
    23:00 +5°C° 0 mm 5 mps 754 mmHg 71%

    Day after tomorrow, 25 October, Thursday

    Time Temperature Precipitation Wind Pressure Humidity
    00:00 +4°C° 0 mm 6 mps 754 mmHg 74%
    01:00 +5°C° 0 mm 6 mps 753 mmHg 77%
    02:00 +5°C° 0.7 mm 6 mps 752 mmHg 81%
    03:00 +5°C° 0.7 mm 7 mps 751 mmHg 85%
    04:00 +5°C° 0.7 mm 7 mps 750 mmHg 89%
    05:00 +7°C° 0.7 mm 9 mps 749 mmHg 87%
    06:00 +8°C° 0.7 mm 10 mps 748 mmHg 85%
    07:00 +9°C° 0.7 mm 11 mps 748 mmHg 83%
    08:00 +9°C° 0.2 mm 11 mps 748 mmHg 80%
    09:00 +9°C° 0.2 mm 11 mps 748 mmHg 77%
    10:00 +9°C° 0.2 mm 10 mps 748 mmHg 75%
    11:00 +8°C° 0.1 mm 10 mps 748 mmHg 73%
    12:00 +8°C° 0.1 mm 10 mps 748 mmHg 72%
    13:00 +8°C° 0.1 mm 10 mps 748 mmHg 71%
    14:00 +8°C° 0.1 mm 9 mps 749 mmHg 71%
    15:00 +8°C° 0.1 mm 9 mps 749 mmHg 71%
    16:00 +8°C° 0.1 mm 9 mps 749 mmHg 72%
    17:00 +9°C° 0 mm 8 mps 750 mmHg 74%
    18:00 +7°C° 0 mm 8 mps 750 mmHg 76%
    19:00 +8°C° 0 mm 7 mps 750 mmHg 78%
    20:00 +8°C° 0 mm 7 mps 751 mmHg 78%
    21:00 +8°C° 0 mm 6 mps 751 mmHg 79%
    22:00 +7°C° 0 mm 6 mps 751 mmHg 80%
    23:00 +7°C° 0.1 mm 6 mps 751 mmHg 80%

    26 October, Friday

    Time Temperature Precipitation Wind Pressure Humidity
    00:00 +7°C° 0.1 mm 6 mps 751 mmHg 80%
    01:00 +7°C° 0.1 mm 5 mps 751 mmHg 80%
    02:00 +7°C° 0.1 mm 5 mps 751 mmHg 81%
    03:00 +7°C° 0.1 mm 5 mps 750 mmHg 82%
    04:00 +7°C° 0.1 mm 5 mps 750 mmHg 82%
    05:00 +7°C° 0.1 mm 5 mps 750 mmHg 84%
    06:00 +6°C° 0.1 mm 5 mps 750 mmHg 85%
    07:00 +6°C° 0.1 mm 5 mps 750 mmHg 87%
    08:00 +7°C° 0 mm 5 mps 750 mmHg 85%
    09:00 +7°C° 0 mm 4 mps 749 mmHg 82%
    10:00 +8°C° 0 mm 4 mps 749 mmHg 80%
    11:00 +8°C° 0.2 mm 5 mps 749 mmHg 81%
    12:00 +8°C° 0.2 mm 5 mps 748 mmHg 82%
    13:00 +8°C° 0.2 mm 5 mps 748 mmHg 83%
    14:00 +9°C° 0.2 mm 5 mps 747 mmHg 84%
    15:00 +9°C° 0.2 mm 5 mps 747 mmHg 86%
    16:00 +9°C° 0.2 mm 5 mps 746 mmHg 87%
    17:00 +9°C° 0.1 mm 6 mps 746 mmHg 86%
    18:00 +9°C° 0.1 mm 6 mps 745 mmHg 86%
    19:00 +9°C° 0.1 mm 6 mps 745 mmHg 85%
    20:00 +9°C° 0 mm 6 mps 744 mmHg 85%
    21:00 +8°C° 0 mm 7 mps 744 mmHg 85%
    22:00 +8°C° 0 mm 7 mps 744 mmHg 85%
    23:00 +8°C° 0.1 mm 7 mps 743 mmHg 84%

    27 October, Saturday

    Time Temperature Precipitation Wind Pressure Humidity
    00:00 +8°C° 0.1 mm 7 mps 743 mmHg 83%
    01:00 +8°C° 0.1 mm 7 mps 743 mmHg 83%
    02:00 +6°C° 0 mm 7 mps 743 mmHg 81%
    03:00 +5°C° 0 mm 7 mps 742 mmHg 80%
    04:00 +5°C° 0 mm 7 mps 742 mmHg 78%
    05:00 +4°C° 0 mm 8 mps 742 mmHg 79%
    06:00 +4°C° 0 mm 8 mps 742 mmHg 80%
    07:00 +2°C° 0 mm 8 mps 742 mmHg 81%
    08:00 +3°C° 0 mm 9 mps 742 mmHg 76%
    09:00 +5°C° 0 mm 9 mps 743 mmHg 71%
    10:00 +5°C° 0 mm 10 mps 743 mmHg 66%
    11:00 +6°C° 0 mm 10 mps 743 mmHg 63%
    12:00 +7°C° 0 mm 10 mps 743 mmHg 59%
    13:00 +7°C° 0 mm 10 mps 743 mmHg 55%
    14:00 +7°C° 0.1 mm 9 mps 743 mmHg 55%
    15:00 +7°C° 0.1 mm 9 mps 744 mmHg 56%
    16:00 +6°C° 0.1 mm 8 mps 744 mmHg 56%
    17:00 +6°C° 0.1 mm 8 mps 744 mmHg 58%
    18:00 +5°C° 0.1 mm 8 mps 744 mmHg 60%
    19:00 +5°C° 0.1 mm 7 mps 744 mmHg 62%
    20:00 +4°C° 0.1 mm 7 mps 744 mmHg 66%
    21:00 +4°C° 0.1 mm 7 mps 745 mmHg 69%
    22:00 +4°C° 0.1 mm 6 mps 745 mmHg 72%
    23:00 +4°C° 0 mm 6 mps 745 mmHg 74%

    28 October, Sunday

    Time Temperature Precipitation Wind Pressure Humidity
    00:00 +3°C° 0 mm 5 mps 745 mmHg 76%
    01:00 +3°C° 0 mm 5 mps 745 mmHg 78%
    02:00 +4°C° 0 mm 4 mps 745 mmHg 80%
    03:00 +3°C° 0 mm 4 mps 745 mmHg 82%
    04:00 +3°C° 0 mm 4 mps 745 mmHg 84%
    05:00 +3°C° 0.1 mm 3 mps 745 mmHg 85%
    06:00 +2°C° 0.1 mm 3 mps 745 mmHg 87%
    07:00 +2°C° 0.1 mm 3 mps 746 mmHg 89%
    08:00 +3°C° 0.1 mm 3 mps 746 mmHg 85%
    09:00 +4°C° 0.1 mm 4 mps 746 mmHg 80%
    10:00 +4°C° 0.1 mm 4 mps 746 mmHg 76%
    11:00 +5°C° 0.1 mm 4 mps 747 mmHg 73%
    12:00 +6°C° 0.1 mm 5 mps 747 mmHg 70%
    13:00 +6°C° 0.1 mm 5 mps 747 mmHg 66%
    14:00 +6°C° 0.2 mm 5 mps 748 mmHg 68%
    15:00 +6°C° 0.2 mm 5 mps 748 mmHg 69%
    16:00 +6°C° 0.2 mm 4 mps 748 mmHg 71%
    17:00 +5°C° 0.3 mm 5 mps 749 mmHg 74%
    18:00 +5°C° 0.3 mm 5 mps 749 mmHg 76%
    19:00 +4°C° 0.3 mm 6 mps 750 mmHg 79%
    20:00 +4°C° 0.6 mm 6 mps 750 mmHg 80%
    21:00 +4°C° 0.6 mm 6 mps 750 mmHg 82%
    22:00 +4°C° 0.6 mm 6 mps 751 mmHg 83%
    23:00 +5°C° 0.5 mm 5 mps 751 mmHg 85%

    29 October, Monday

    Time Temperature Precipitation Wind Pressure Humidity
    00:00 +5°C° 0.5 mm 5 mps 752 mmHg 86%
    01:00 +4°C° 0.5 mm 4 mps 752 mmHg 87%
    02:00 +4°C° 0.7 mm 4 mps 752 mmHg 88%
    03:00 +4°C° 0.7 mm 3 mps 753 mmHg 89%
    04:00 +4°C° 0.7 mm 2 mps 753 mmHg 90%
    05:00 +3°C° 0.8 mm 3 mps 753 mmHg 90%
    06:00 +3°C° 0.8 mm 3 mps 754 mmHg 90%
    07:00 +2°C° 0.8 mm 3 mps 754 mmHg 90%
    08:00 +3°C° 0.3 mm 3 mps 755 mmHg 88%
    09:00 +3°C° 0.3 mm 3 mps 755 mmHg 85%
    10:00 +4°C° 0.3 mm 3 mps 755 mmHg 82%
    11:00 +5°C° 0.1 mm 3 mps 756 mmHg 79%
    12:00 +5°C° 0.1 mm 3 mps 756 mmHg 76%
    13:00 +5°C° 0.1 mm 3 mps 756 mmHg 72%
    14:00 +5°C° 0.1 mm 3 mps 756 mmHg 73%
    15:00 +5°C° 0.1 mm 3 mps 756 mmHg 74%
    16:00 +5°C° 0.1 mm 2 mps 755 mmHg 76%
    17:00 +4°C° 0 mm 2 mps 756 mmHg 77%
    18:00 +4°C° 0 mm 2 mps 756 mmHg 78%
    19:00 +3°C° 0 mm 2 mps 756 mmHg 80%
    20:00 +3°C° 0 mm 2 mps 756 mmHg 79%
    21:00 +3°C° 0 mm 2 mps 756 mmHg 79%
    22:00 +3°C° 0 mm 2 mps 756 mmHg 79%
    23:00 +4°C° 0 mm 1 mps 756 mmHg 79%
    Show more